Weather in Palatka

Russia / Magadan District     60°06′05″N   150°56′05″E
temp.,
°C
wind,
m/s
gust,
m/s
humid.,
%
clouds,
%
prec.,
mm/h
press.,
hPa
HPBL,
m
6 march, sat
sat623:00−30nne226733 0.0 100919
02:00−30nne226321 0.0 100919
05:00−30nne336239 0.0 100919
08:00−30nne33630 0.0 100919
11:00−24nne23677 0.0 1008155
14:00−22nne375440 0.0 10071170
17:00−24nnw336964 0.0 100740
20:00−29n447197 0.0 100724
7 march, sun
sun723:00−29n447296 0.0 100827
02:00−29n347196 0.0 100725
05:00−30n346896 0.0 100719
08:00−29n347098 0.0 100822
11:00−23nnw337099 0.0 1007183
14:00−20nnw4858100 0.0 10051234
17:00−21nw227358 0.0 100520
20:00−27n33670 0.0 100619
8 march, mon
mon823:00−27nne22610 0.0 100719
02:00−28nne22580 0.0 100719
05:00−29nne12560 0.0 100719
08:00−29nne12560 0.0 100719
11:00−22nne11540 0.0 1007132
14:00−20nnw11500 0.0 1006399
17:00−20wnw11740 0.0 100520
20:00−26ne22690 0.0 100720
9 march, tue
tue923:00−27nne22590 0.0 100819
02:00−28nne22540 0.0 100919
05:00−28nne22521 0.0 100919
08:00−28nne115138 0.0 101019
11:00−22e004628 0.0 1010121
14:00−19wsw21550 0.0 1010276
17:00−21sw11780 0.0 101020
20:00−28ene00890 0.0 101320
10 march, wed
wed1023:00−28ne11800 0.0 101420
02:00−29ene11760 0.0 101520
05:00−29ne11720 0.0 101719
08:00−29ne11690 0.0 101819
11:00−23s10600 0.0 1019153
14:00−21sw21720 0.0 1018346
17:00−21sw11870 0.0 101922
20:00−28n001000 0.0 102020